Location: Unspecified
(43.4354°N, 0.0000°E)
Time: 04:30:00
(UTC+00:00)

Tiros 1 despin weight - Pass Details

Date: 27 June 2019
Orbit: 594 x 643 km, 48.2° (Epoch: 22 July)

Event Time Altitude Azimuth Distance (km) Brightness Sun altitude
Rises 02:48:08 0° 293° (WNW) 2,836 ? -13.2°
Reaches altitude 10° 02:50:27 10° 290° (WNW) 1,929 ? -13.0°
Maximum altitude 02:54:47 60° 211° (SSW) 679 ? -12.5°
Drops below altitude 10° 02:59:07 10° 131° (SE) 1,920 ? -11.9°
Sets 03:01:25 0° 128° (SE) 2,822 ? -11.7°
